Temp
2 0 -1 -0 1 1 1 2 2 3 5 4 6 6 8 10 10 11 11 14 15 15 17 17 17 17 16 15 14 13 12 10 11 10 10 11 11 11 11 12 12 12 12 11
-1 0 1 2 1 1 1 1 1 3 5 5 4 4 6 7 9 11 12 13 14 15 17 17 16 16 16 16 15 14 12 12 11 11 11 12 13 12 12 11 11 11 12 11
-1 1 2 1 0 1 1 0 0 1 2 3 4 4 7 9 10 11 12 13 14 15 17 17 16 16 17 16 15 15 14 14 12 12 11 11 11 11 10 11 11 11 11 11
0 1 0 0 0 1 0 2 1 1 0 0 3 3 6 7 8 10 11 12 12 14 17 17 17 16 17 17 16 16 15 14 12 12 12 12 12 13 13 12 12 11 11 11
-0 -0 -0 -0 0 0 1 1 1 1 0 0 1 1 5 7 8 9 10 12 13 14 16 17 17 17 18 17 16 15 15 15 13 13 13 13 12 12 13 12 12 11 11 11
-1 1 -0 0 0 1 1 0 -0 0 0 -1 1 2 4 7 8 9 10 12 13 14 15 16 17 17 17 17 17 16 15 14 13 12 13 14 12 12 12 12 11 11 11 11
-1 -0 0 1 -1 -0 -1 -2 -6 -6 -2 -1 3 2 4 6 7 9 10 11 13 14 15 16 17 16 16 17 16 14 14 14 13 13 13 14 13 13 13 13 12 12 11 11
-5 -7 -1 1 -1 -2 -2 -1 -2 -3 -1 2 4 3 5 7 9 10 11 12 12 13 14 14 15 15 16 16 17 14 14 14 14 13 13 13 14 13 12 12 13 12 13 12
-5 -3 -1 -0 0 0 -1 -2 0 -1 -2 -1 1 4 6 7 8 9 9 10 11 12 12 14 15 14 15 16 17 15 14 14 15 14 14 13 13 13 13 12 12 12 12 12
-6 -5 -1 0 -0 1 0 1 -1 0 0 1 2 2 4 6 8 9 9 10 11 12 12 13 14 15 14 15 16 16 15 16 15 15 14 13 13 13 12 11 12 12 12 12
-4 -6 -3 -2 -2 -2 -2 -1 -1 -0 0 1 1 3 6 7 8 7 6 7 8 9 11 11 12 14 15 15 15 15 14 14 14 14 13 13 12 11 12 11 11 12 12 12
-3 -7 -5 -3 -1 -0 -1 -1 -1 -2 -1 -1 0 1 6 7 5 5 6 8 8 7 8 10 11 14 15 14 14 14 14 13 14 13 12 13 12 11 11 11 11 11 11 11
-6 -9 -7 -6 -2 -1 -3 -2 -1 -1 -1 -1 -0 1 7 5 5 5 6 7 8 8 8 8 10 13 14 14 14 14 13 13 13 12 12 11 11 11 11 11 10 11 11 11
-3 -7 -6 -6 -4 -3 -4 -3 -2 -2 -3 -1 -0 1 3 5 5 5 5 6 6 8 7 6 7 9 11 12 13 13 12 12 13 11 11 10 10 11 11 11 10 10 11 10
-7 -8 -9 -5 -4 -4 -4 -4 -3 -3 -2 -1 0 -0 2 1 3 4 4 4 3 5 5 5 5 7 9 10 10 11 11 12 12 10 11 8 9 10 10 10 9 10 10 10
-10 -5 -8 -6 -4 -5 -4 -3 -2 -1 0 -1 -1 -1 0 -0 3 2 2 2 1 2 4 4 4 5 7 8 9 10 10 11 10 8 8 7 8 8 9 10 9 9 9 10
-7 -8 -9 -6 -6 -8 -7 -3 -1 -1 -0 -2 -2 -2 -2 1 2 1 1 0 -0 0 2 3 4 4 6 7 8 9 9 10 10 8 8 8 7 8 9 9 9 9 9 9
-5 -8 -5 -6 -11 -11 -5 -0 1 0 -0 -2 -2 -2 -2 -1 -0 -0 0 -1 -1 -1 2 3 3 3 5 5 6 7 8 9 9 8 8 7 7 7 8 8 8 8 9 9
-4 -8 -9 -7 -14 -5 -3 -1 -0 -1 -1 -3 -3 -2 -2 -2 -0 -1 -2 -1 -1 -1 1 2 2 2 3 4 5 5 7 7 7 7 7 7 7 7 7 7 7 8 8 8
-4 -4 -8 -17 -10 -9 -2 -0 1 0 -2 0 -2 -2 -3 -2 -1 -1 -2 -3 -0 -0 -0 1 2 3 3 3 3 4 5 6 7 7 7 7 7 7 6 7 7 7 8 9
-15 -16 -6 -6 -6 -7 -3 -1 1 -3 -2 -0 -2 -2 -2 -3 -3 -3 -2 -1 -3 0 -0 1 1 2 2 3 3 3 4 4 5 6 6 6 6 6 6 6 6 7 7 8
-8 -12 -13 -15 -14 -8 -1 -1 -2 -1 -0 0 -0 -1 -3 -3 -3 -2 -2 -2 -2 -1 -0 0 0 1 2 2 3 3 3 4 4 5 5 5 5 5 5 5 6 6 7 8
-6 -5 -7 -5 -5 -2 0 -1 -0 -0 -1 0 0 -0 -1 -1 -1 -3 -2 -1 -3 -2 -1 -0 0 1 1 2 2 3 3 4 4 4 4 4 4 4 5 5 5 6 7 7
-4 -4 -5 -4 -3 -2 -1 -1 -1 -0 -0 -0 0 0 -0 -1 -1 -2 -2 -2 -1 -3 -2 -1 0 1 1 1 2 2 3 3 3 4 4 4 4 4 4 4 5 6 6 7
-4 -5 -6 -4 -3 -2 -1 -1 -1 0 0 -1 0 -0 -0 -1 -1 -1 -1 -2 -2 -0 -0 -1 -1 0 0 1 2 2 3 3 3 3 4 4 4 4 4 5 5 6 7 8
-5 -5 -5 -5 -2 -2 -1 -1 -0 0 0 -0 -0 -0 0 -0 -1 -1 -1 -1 -2 -1 -1 0 -1 -0 0 1 2 2 2 2 3 3 3 3 4 4 4 5 5 5 6 7
Height
1512 1517 1529 1529 1526 1526 1522 1516 1509 1501 1495 1490 1474 1465 1459 1452 1445 1443 1439 1435 1432 1433 1436 1438 1441 1445 1449 1453 1456 1460 1463 1465 1471 1475 1479 1482 1486 1490 1494 1496 1498 1500 1502 1504
1518 1524 1526 1524 1523 1521 1519 1516 1508 1495 1490 1489 1477 1451 1458 1448 1438 1433 1431 1427 1425 1426 1428 1430 1433 1436 1439 1443 1447 1452 1457 1458 1463 1469 1474 1478 1482 1486 1491 1494 1496 1498 1500 1503
1526 1526 1524 1524 1522 1516 1515 1517 1511 1506 1497 1492 1480 1443 1432 1421 1425 1422 1417 1415 1415 1415 1419 1423 1425 1427 1431 1434 1439 1444 1448 1451 1456 1463 1470 1474 1480 1484 1486 1488 1492 1494 1497 1500
1527 1525 1525 1523 1522 1518 1510 1510 1508 1505 1505 1500 1484 1458 1419 1417 1411 1410 1402 1406 1407 1409 1410 1415 1418 1420 1422 1426 1433 1438 1442 1445 1450 1455 1461 1465 1469 1471 1476 1482 1487 1491 1494 1498
1531 1526 1521 1521 1519 1517 1511 1510 1506 1502 1500 1496 1483 1485 1399 1406 1405 1392 1401 1400 1401 1403 1405 1406 1409 1414 1417 1421 1424 1430 1435 1439 1443 1446 1451 1458 1464 1469 1474 1479 1484 1488 1491 1495
1529 1523 1521 1518 1518 1515 1508 1508 1500 1492 1493 1486 1468 1472 1412 1404 1397 1396 1393 1391 1392 1394 1396 1398 1401 1405 1408 1412 1414 1419 1425 1430 1435 1440 1444 1450 1456 1462 1468 1475 1478 1483 1487 1491
1525 1520 1518 1514 1516 1512 1508 1511 1529 1525 1492 1476 1451 1459 1408 1398 1393 1391 1389 1386 1384 1385 1385 1387 1389 1391 1396 1400 1403 1408 1414 1420 1427 1432 1437 1442 1449 1455 1462 1469 1472 1476 1481 1485
1541 1548 1521 1514 1519 1516 1507 1508 1511 1506 1479 1459 1450 1435 1402 1394 1391 1390 1378 1383 1381 1378 1378 1378 1379 1381 1384 1389 1393 1397 1402 1411 1417 1422 1429 1436 1443 1449 1456 1464 1468 1473 1477 1482
1543 1527 1516 1514 1510 1509 1505 1503 1491 1490 1479 1476 1452 1417 1400 1398 1385 1379 1372 1371 1368 1368 1368 1369 1371 1372 1373 1377 1381 1385 1392 1401 1408 1413 1422 1428 1435 1442 1448 1457 1463 1469 1474 1479
1546 1529 1513 1506 1503 1500 1501 1496 1490 1478 1462 1448 1427 1420 1403 1392 1374 1375 1368 1364 1356 1361 1360 1359 1358 1360 1361 1364 1371 1378 1383 1390 1399 1407 1412 1420 1427 1435 1442 1450 1456 1462 1469 1476
1539 1541 1516 1508 1509 1505 1498 1496 1493 1478 1465 1447 1433 1416 1397 1383 1373 1372 1368 1360 1355 1354 1352 1350 1346 1349 1352 1355 1360 1367 1373 1382 1390 1397 1404 1412 1419 1428 1435 1442 1450 1458 1465 1471
1537 1541 1527 1511 1495 1494 1495 1495 1492 1487 1474 1462 1449 1421 1388 1384 1381 1380 1367 1362 1359 1354 1347 1343 1340 1339 1342 1346 1351 1357 1364 1371 1380 1388 1396 1405 1413 1420 1427 1435 1444 1452 1459 1466
1537 1546 1541 1519 1493 1491 1495 1489 1489 1487 1477 1455 1448 1413 1381 1390 1387 1375 1366 1362 1353 1347 1342 1340 1335 1333 1335 1339 1343 1349 1356 1362 1372 1382 1389 1397 1405 1412 1420 1429 1437 1446 1453 1461
1531 1536 1536 1535 1513 1505 1498 1478 1481 1483 1473 1450 1432 1406 1385 1391 1380 1370 1362 1359 1354 1341 1341 1339 1334 1330 1331 1334 1337 1342 1350 1357 1364 1374 1381 1388 1396 1405 1415 1422 1430 1439 1448 1455
1530 1536 1532 1517 1508 1502 1495 1486 1476 1473 1457 1444 1422 1406 1401 1395 1387 1369 1369 1361 1354 1341 1339 1338 1335 1331 1330 1332 1335 1340 1346 1352 1359 1368 1374 1381 1391 1400 1410 1416 1425 1435 1442 1450
1525 1520 1523 1516 1497 1497 1488 1477 1468 1457 1445 1439 1427 1413 1407 1390 1374 1370 1366 1363 1356 1349 1341 1339 1336 1334 1332 1333 1336 1340 1344 1349 1357 1364 1370 1379 1386 1394 1403 1412 1420 1429 1437 1445
1520 1521 1524 1510 1496 1500 1498 1463 1454 1452 1448 1444 1432 1421 1407 1380 1372 1372 1366 1360 1361 1354 1347 1341 1338 1336 1334 1334 1336 1340 1344 1349 1355 1362 1368 1375 1382 1389 1398 1407 1415 1423 1431 1439
1506 1513 1508 1503 1516 1526 1469 1451 1449 1448 1443 1445 1435 1427 1413 1399 1380 1374 1367 1362 1363 1363 1350 1343 1339 1336 1336 1336 1338 1341 1345 1349 1353 1358 1364 1371 1379 1386 1393 1402 1410 1418 1426 1434
1493 1504 1512 1505 1534 1476 1459 1452 1449 1445 1436 1440 1435 1425 1410 1392 1380 1369 1372 1370 1370 1362 1350 1347 1342 1338 1336 1337 1339 1342 1346 1349 1352 1357 1361 1368 1377 1383 1389 1397 1405 1414 1422 1429
1487 1489 1500 1536 1509 1498 1454 1448 1444 1436 1434 1430 1430 1424 1416 1403 1386 1386 1382 1373 1370 1366 1355 1348 1343 1341 1339 1338 1339 1341 1345 1348 1352 1355 1360 1367 1373 1380 1386 1394 1401 1410 1419 1426
1511 1512 1487 1485 1479 1474 1451 1442 1440 1446 1447 1431 1427 1423 1417 1416 1410 1400 1390 1382 1376 1374 1363 1357 1349 1344 1341 1340 1339 1342 1345 1348 1352 1356 1360 1366 1371 1377 1384 1392 1399 1406 1414 1422
1488 1502 1503 1508 1510 1478 1441 1441 1443 1439 1434 1429 1425 1421 1419 1414 1409 1399 1392 1387 1382 1375 1370 1362 1356 1350 1346 1343 1342 1343 1345 1348 1351 1355 1359 1364 1369 1375 1381 1388 1395 1402 1410 1418
1472 1466 1469 1463 1455 1441 1437 1435 1431 1431 1429 1425 1423 1421 1417 1413 1406 1401 1392 1388 1387 1384 1380 1373 1364 1354 1351 1347 1345 1344 1346 1348 1351 1355 1359 1363 1367 1372 1378 1384 1391 1398 1406 1414
1455 1453 1456 1453 1438 1434 1431 1429 1429 1426 1425 1422 1419 1416 1413 1410 1406 1400 1395 1392 1391 1386 1383 1377 1368 1360 1358 1353 1348 1349 1349 1349 1352 1355 1357 1361 1365 1370 1376 1382 1389 1395 1402 1409
1447 1447 1441 1437 1429 1427 1426 1423 1423 1419 1418 1416 1416 1413 1410 1408 1404 1400 1396 1393 1391 1388 1382 1377 1372 1368 1365 1361 1357 1353 1349 1350 1352 1355 1357 1360 1364 1369 1375 1380 1386 1393 1402 1408
1439 1434 1434 1426 1414 1422 1415 1416 1417 1415 1414 1413 1413 1411 1409 1406 1402 1398 1396 1393 1391 1387 1385 1379 1377 1378 1373 1365 1361 1358 1355 1354 1354 1356 1358 1361 1364 1369 1373 1379 1385 1392 1399 1406
Wind_Speed
8 8 8 8 7 9 11 13 17 14 12 11 17 19 18 25 31 25 29 40 35 29 28 36 43 40 39 39 39 39 42 42 37 37 35 31 30 27 24 21 19 18 16 16
6 7 6 14 13 13 11 14 12 12 9 19 12 34 22 25 28 30 29 35 40 45 40 33 39 45 45 42 41 41 45 44 42 37 37 34 30 29 25 23 22 20 19 18
4 2 15 13 13 17 14 14 13 17 19 16 19 28 18 24 30 35 37 38 41 44 44 34 34 44 48 49 46 44 45 46 44 41 39 37 32 29 29 29 26 24 21 20
3 7 12 13 9 11 14 3 17 21 15 5 10 12 19 8 15 22 36 32 36 38 41 37 35 39 48 52 49 46 46 48 48 44 43 43 41 39 37 33 28 26 24 22
4 9 15 8 7 10 7 10 13 15 17 16 20 9 16 10 20 27 13 26 31 38 39 39 34 37 40 49 54 52 50 49 51 49 46 46 43 40 37 33 31 29 27 25
8 18 3 7 13 10 12 13 18 14 6 10 16 15 12 17 21 17 9 29 32 35 38 43 43 46 46 46 54 57 55 53 52 52 50 47 47 45 40 36 35 33 30 28
7 2 5 8 14 8 13 4 4 5 4 7 3 11 25 16 14 12 14 21 30 36 43 45 47 46 48 51 53 58 60 58 55 54 53 47 49 47 42 38 38 37 35 33
6 6 9 12 12 8 16 3 4 6 10 12 11 12 10 11 20 35 41 43 42 36 35 41 47 48 49 52 55 57 61 61 58 57 54 50 46 48 45 41 39 38 36 34
5 5 23 15 11 3 5 4 8 10 18 10 8 20 23 27 26 18 24 28 29 30 34 40 44 43 51 52 57 59 61 62 60 58 55 53 48 47 48 44 41 38 37 34
5 13 9 9 9 3 6 7 7 5 7 6 8 13 12 18 27 18 18 23 42 39 30 36 40 37 45 51 56 59 61 62 62 58 56 53 51 47 48 47 44 41 38 36
5 3 15 3 6 17 9 5 5 8 6 6 9 7 13 18 20 14 8 17 16 16 19 21 31 37 39 45 51 59 61 62 62 60 58 54 52 49 47 48 46 41 39 37
4 4 4 25 21 7 3 6 11 6 11 16 14 15 17 19 11 9 18 24 19 17 16 18 18 22 31 42 48 56 60 61 62 60 56 53 51 50 47 48 47 43 40 39
3 2 6 15 6 2 6 9 13 14 15 20 11 11 3 14 20 24 16 30 21 20 22 18 16 17 27 37 44 51 57 59 59 57 54 52 51 50 47 46 47 45 42 40
5 3 6 8 17 16 21 29 24 16 10 16 16 28 30 16 18 14 16 21 26 16 23 21 15 12 20 32 39 47 53 57 58 57 55 52 51 49 44 44 47 46 43 42
4 6 4 15 19 21 24 26 25 20 20 13 22 28 25 23 24 1 12 21 22 21 22 20 15 10 11 22 32 40 48 53 55 53 55 51 48 46 44 44 46 45 44 42
3 9 3 16 16 12 21 24 16 15 15 9 15 22 28 36 20 10 15 17 24 27 22 19 15 10 7 10 23 33 41 48 50 47 48 48 46 44 45 43 44 45 44 43
6 4 1 7 15 8 9 6 19 11 15 13 14 21 24 12 13 14 16 21 24 28 23 20 14 7 5 7 15 26 34 40 44 43 43 44 45 43 44 43 43 46 46 44
15 5 4 7 5 3 8 17 14 14 7 12 16 20 26 23 15 25 31 29 28 26 22 19 14 7 7 6 8 16 27 34 38 40 41 42 42 41 43 42 43 46 46 45
16 4 3 2 4 10 11 7 10 18 15 10 13 20 31 40 12 30 35 32 30 32 23 18 12 8 7 11 9 11 21 28 34 37 39 39 37 40 42 42 43 45 46 46
5 9 4 3 4 7 7 15 24 18 4 10 7 12 17 32 13 10 32 34 37 34 29 20 15 8 3 2 9 13 16 24 29 34 35 34 35 38 39 41 42 45 46 46
2 2 11 10 9 7 10 13 16 4 5 15 12 18 9 9 10 24 25 32 34 36 35 27 19 13 8 3 3 9 15 19 21 25 26 28 31 35 35 39 42 46 47 46
8 4 4 2 1 8 17 7 2 7 22 18 15 17 16 12 14 23 29 31 32 35 37 34 30 23 15 9 4 6 10 14 16 20 22 25 28 32 35 38 42 44 47 46
6 8 5 8 6 9 20 16 30 29 17 17 12 15 17 16 18 18 21 28 31 30 30 34 32 32 27 16 9 4 8 11 14 17 20 22 24 29 33 37 42 44 46 46
14 24 11 15 19 23 34 36 31 29 30 24 16 14 15 15 15 18 18 17 20 27 28 30 34 33 31 28 19 8 3 10 13 13 17 19 23 27 31 35 38 42 45 45
18 6 8 15 22 26 29 33 34 28 20 13 13 11 12 14 16 17 18 18 16 15 23 26 29 30 29 28 25 19 9 4 9 13 15 16 20 25 28 31 35 38 40 41
22 19 9 9 26 16 27 26 21 20 20 16 12 9 9 14 17 16 16 16 15 15 13 17 22 23 26 27 26 24 20 10 5 8 13 17 20 23 26 29 32 35 38 39
Wind_Direction
3 65 28 346 4 345 326 311 306 301 290 316 293 298 287 284 273 268 265 263 255 253 256 250 236 232 229 223 221 218 215 213 214 208 210 209 211 207 203 199 199 197 193 181
12 67 0 345 344 326 311 308 308 300 320 316 312 293 282 275 272 271 259 257 254 258 258 253 238 231 227 225 221 218 216 217 216 219 213 214 210 209 206 201 199 199 197 186
68 276 349 342 336 325 320 310 301 293 315 292 289 284 268 255 252 257 257 253 253 249 253 247 243 231 226 226 222 219 217 218 217 218 217 215 211 210 205 204 201 198 199 192
352 335 328 328 344 331 322 330 309 302 315 325 350 287 276 281 259 241 245 246 245 243 247 248 248 233 228 228 226 224 220 219 216 217 217 216 211 206 208 206 200 198 199 195
300 323 313 323 328 310 294 328 308 302 286 295 260 247 280 190 243 247 254 251 243 248 243 245 245 244 235 231 227 224 222 221 217 217 220 217 214 215 212 205 203 200 199 197
303 291 264 286 307 271 313 324 297 271 240 254 252 223 270 246 251 259 241 249 246 247 249 249 250 252 244 234 229 225 222 221 218 219 222 217 213 215 212 206 204 201 200 198
340 194 293 307 335 309 301 331 324 335 222 253 349 210 243 278 285 275 259 253 256 247 246 246 247 244 241 235 227 223 220 219 218 220 223 220 215 216 215 210 208 202 201 200
347 337 340 320 300 281 280 221 247 262 272 275 304 253 251 306 259 257 267 265 264 256 255 251 250 250 243 235 228 221 221 219 219 220 223 224 218 216 216 213 213 210 208 204
310 277 304 307 296 216 302 226 234 262 266 274 243 258 268 277 270 258 245 256 254 260 264 261 255 256 247 237 229 223 220 219 219 221 222 223 221 218 216 213 215 215 211 207
272 298 280 330 309 273 217 282 316 257 278 274 262 254 260 292 285 291 271 258 261 264 269 269 272 253 243 237 229 223 222 221 220 222 223 223 222 220 218 213 213 214 213 207
265 238 300 317 324 307 335 336 272 283 261 287 300 303 315 259 264 288 319 332 296 276 273 272 258 253 249 236 224 220 220 218 218 221 221 220 221 220 221 214 213 213 212 208
261 230 295 297 290 257 162 294 316 311 312 293 284 276 275 270 330 308 334 333 330 317 314 300 285 247 234 230 220 216 216 216 218 218 219 220 221 220 220 215 212 212 211 208
279 273 319 329 357 167 274 304 301 300 282 265 284 277 169 342 298 303 329 320 315 332 332 318 303 260 230 223 220 214 213 213 215 214 216 219 218 219 218 215 211 209 210 207
325 244 191 263 270 294 298 300 303 296 286 285 266 273 289 305 308 297 337 319 314 347 333 319 314 292 235 222 219 213 211 211 213 211 214 216 217 218 216 214 210 208 207 206
142 248 219 258 268 280 278 284 290 293 276 271 294 297 313 321 298 42 316 345 340 8 350 336 323 313 256 224 216 209 206 207 211 206 211 211 214 216 215 214 210 207 207 205
228 272 266 287 278 266 289 287 281 292 317 296 316 329 325 317 285 25 18 356 353 354 1 343 326 311 276 228 215 209 205 206 207 198 205 207 212 212 212 213 209 206 206 205
189 227 242 269 296 310 302 224 338 323 318 334 340 333 324 317 43 24 23 14 357 349 354 348 337 292 277 229 211 212 208 206 206 200 202 203 212 213 212 212 209 206 205 203
256 223 243 264 355 314 240 327 309 308 321 349 337 333 336 315 63 39 27 26 3 350 3 1 354 330 237 212 203 211 209 206 203 201 199 204 206 214 212 210 207 205 204 203
217 188 249 223 210 284 294 292 334 317 309 344 345 339 343 343 325 31 16 19 11 9 9 11 7 354 233 221 210 195 207 205 203 204 205 209 214 212 209 207 206 204 203 202
213 197 173 81 222 254 282 303 299 296 239 356 322 350 348 343 8 10 10 11 19 19 22 10 21 17 56 209 209 217 210 198 202 202 206 211 212 213 211 208 204 203 204 203
324 326 220 241 255 276 266 275 314 27 303 319 314 303 0 351 354 353 12 12 12 18 23 28 31 31 37 49 178 201 211 209 205 202 205 211 214 211 211 207 206 203 203 203
234 178 212 69 133 285 257 283 218 282 308 307 308 321 310 320 329 3 10 14 9 14 15 28 35 40 41 51 95 171 196 197 206 207 206 209 212 208 207 207 205 204 203 202
257 210 223 204 229 252 266 262 288 307 285 306 300 314 319 336 345 347 3 9 4 7 6 17 28 39 41 42 60 109 174 183 193 199 207 207 210 208 206 206 205 202 202 203
262 245 247 266 261 255 264 273 279 283 282 285 285 295 310 326 349 349 358 358 360 355 359 7 16 33 33 38 43 56 127 179 189 197 200 205 206 205 206 206 207 204 202 202
253 247 231 248 257 267 269 269 279 285 300 258 258 278 306 316 331 343 351 344 348 360 353 358 10 19 29 32 38 44 60 114 179 191 198 198 198 200 203 206 206 206 206 206
257 245 227 239 257 245 266 272 270 280 288 243 251 259 296 311 325 330 337 345 344 352 5 1 357 4 16 27 31 39 46 57 121 168 187 194 196 197 200 202 202 205 209 208